Погода в Татарской Каргале

Россия / Оренбургская область     51°56′56″N   55°10′06″E
темп.,
°C
ветер,
м/с
пор.,
м/с
влажн.,
%
обл.,
%
осадки,
мм/ч
давл.,
гПа
погр.,
м
5 августа, чт
чт523:00+27юв6123094 0.0 1010232
02:00+25ююв333399 0.0 100932
05:00+24ююз2329100 0.0 100924
08:00+27сз2321100 0.0 1009133
11:00+34ссз672655 0.0 10091204
14:00+35з7102283 0.0 10092315
17:00+35з7102393 0.0 10083252
20:00+31сз7830100 0.1 10081135
6 августа, пт
пт623:00+25с8144296 0.1 1010561
02:00+22ссз6125492 0.0 1011366
05:00+20ссз51160100 0.0 1011310
08:00+21с7106197 0.0 1012526
11:00+26с89360 0.0 10121775
14:00+29с782521 0.0 10122464
17:00+30с772454 0.0 10112595
20:00+27ссв79303 0.0 1012934
7 августа, сб
сб723:00+20ссв495045 0.0 1013158
02:00+17с3755100 0.0 1014129
05:00+15ссв35585 0.0 101581
08:00+19с47398 0.0 1016270
11:00+25с56225 0.0 10151426
14:00+28с66175 0.0 10151815
17:00+30с67161 0.0 10142138
20:00+27ссв58220 0.0 1015697
8 августа, вс
вс823:00+20ссв33340 0.0 101636
02:00+17ссв37450 0.0 1016113
05:00+15с35523 0.0 101881
08:00+19ссв57412 0.0 1019336
11:00+25ссв57325 0.0 10181288
14:00+28с67236 0.0 10171776
17:00+30с671810 0.0 10162033
20:00+27ссв58202 0.0 1017380
9 августа, пн
пн923:00+20св343337 0.0 101842
02:00+17ссв224559 0.0 101812
05:00+16ссв345064 0.0 101953
08:00+19ссв464088 0.0 1019257
11:00+25ссв4525100 0.0 10191014
14:00+29ссв5519100 0.0 10181458
17:00+30с6623100 0.0 10181591
20:00+27ссв462885 0.0 1018260